Location: RyutenAO
(34.8939°N, 134.0022°E)
Time: 22:47:20
(UTC+09:00)

N. Korean satellite - Visible Passes

Search period start: 01 December 2021 00:00
Search period end: 11 December 2021 00:00
Orbit: 447 x 495 km, 97.3° (Epoch: 01 December)

Date Brightness Start Highest point End Pass type
(mag) Time Alt. Az. Time Alt. Az. Time Alt. Az.
01 Dec 9.7 04:23:47 10° ENE 04:25:34 14° E 04:27:21 10° SE visible
01 Dec 7.5 05:56:01 10° NNW 05:58:44 23° WNW 06:01:27 10° SW visible
02 Dec 6.3 05:27:02 10° N 05:30:22 61° WNW 05:33:41 10° SSW visible
02 Dec 9.8 17:32:04 10° SW 17:34:09 15° W 17:36:15 10° WNW visible
03 Dec 7.5 04:58:38 10° NNE 05:01:53 45° E 05:05:07 10° S visible
04 Dec 9.3 04:30:57 10° NE 04:33:17 17° E 04:35:37 10° SE visible
04 Dec 7.8 06:03:58 10° NNW 06:06:21 18° WNW 06:08:44 10° WSW visible
05 Dec 6.6 05:34:44 10° N 05:37:59 45° WNW 05:41:13 10° SSW visible
05 Dec 10.1 17:40:34 10° WSW 17:41:50 12° W 17:43:06 10° WNW visible
06 Dec 6.9 05:06:09 10° NNE 05:09:29 60° E 05:12:49 10° S visible
07 Dec 8.9 04:38:10 10° NE 04:40:54 22° E 04:43:36 10° SSE visible
07 Dec 8.1 06:11:55 10° NW 06:13:51 15° WNW 06:15:47 10° WSW visible
08 Dec 6.9 05:42:22 10° N 05:45:29 35° WNW 05:48:35 10° SW visible
09 Dec 6.4 05:13:36 10° NNE 05:16:59 81° ESE 05:20:22 10° S visible
09 Dec 9.5 17:17:55 10° SSW 17:20:41 22° W 17:23:26 10° NW visible
10 Dec 8.4 04:45:24 10° NE 04:48:22 28° E 04:51:21 10° SSE visible
10 Dec 8.3 06:20:00 10° NW 06:21:14 12° WNW 06:22:30 10° W visible
